Погода в Хазелбруке

Австралия     33°43′20″S   150°27′11″E
темп.,
°C
ветер,
м/с
пор.,
м/с
влажн.,
%
обл.,
%
осадки,
мм/ч
давл.,
гПа
погр.,
м
19 мая, ср
ср1901:00+6з21790 0.0 102826
04:00+5з21800 0.0 102831
07:00+5зсз21800 0.0 102930
10:00+15зюз02430 0.0 1028540
13:00+19юв03280 0.0 10251406
16:00+15в11515 0.0 102547
19:00+9зсз21645 0.0 102713
22:00+7з227152 0.0 102835
20 мая, чт
чт2001:00+6з227259 0.0 102737
04:00+6з227380 0.0 102641
07:00+5з22758 0.0 102745
10:00+15з13398 0.0 1026463
13:00+19ю132775 0.0 10231388
16:00+16юв114917 0.0 102422
19:00+9з2268100 0.0 102734
22:00+8з2274100 0.0 102933
21 мая, пт
пт2101:00+7з22788 0.0 102933
04:00+7з22775 0.0 102940
07:00+9зюз227095 0.0 103066
10:00+12юз156899 0.0 1031301
13:00+15юв357298 0.1 10281021
16:00+12ююв2788100 0.5 1029588
19:00+11ю268994 0.1 1030415
22:00+11ю2789100 0.1 1031468
22 мая, сб
сб2201:00+10зюз129446 0.0 103065
04:00+8зюз22964 0.0 102934
07:00+7з21963 0.0 103030
10:00+15ююз126530 0.0 1029574
13:00+16юв126592 0.0 1027855
16:00+14юв127699 0.0 1027282
19:00+13ююз128894 0.0 102755
22:00+12юз139195 0.1 1027141
23 мая, вс
вс2301:00+12юз129372 0.1 102762
04:00+11юз119338 0.1 102718
07:00+11зюз1194100 0.1 102844
10:00+12ююз1196100 1.6 1028141
13:00+13ююв1299100 2.3 1027170
16:00+13ююв129898 3.3 1026190
19:00+12ю119686 0.4 102826
22:00+11з009755 0.6 102811